Date String (YYYY-MM-DD hh:mm:ss) UTC,Instrument flags,Ambient pressure (hPa),Sample flow (lpm),Bypass flow (lpm),Sample temperature (°C),Ambient temperature (°C),ASC tube jacket temperature (°C),LED temperature (°C),Box temperature (°C),Sample RH (%),Span deviation,Mass concentration (μg/m³),Mass concentration (μg/m³),Mass concentration (μg/m³)
DateTimeUTC,F1_M11,P_M11,Q1_M11,Q2_M11,T1_M11,T2_M11,T3_M11,T4_M11,T5_M11,U1_M11,ZSPAN_M11,X0_M11,X2_M11,X1_M11
2022-10-08 21:00:00,,0833.5,4.99,0.00,30.2,28.1,00.0,39.0,31.9,15.5,-000.2,0013.85,0008.81,0008.29
2022-10-08 21:01:00,,0833.5,5.00,0.00,30.1,28.3,00.0,38.9,31.9,14.9,-000.1,0013.77,0008.75,0008.21
2022-10-08 21:02:00,,0833.5,5.00,0.00,30.1,28.5,00.0,38.9,31.9,14.8,-000.3,0013.55,0008.65,0008.12
2022-10-08 21:03:00,,0833.5,5.00,0.00,30.1,28.6,00.0,38.9,31.9,15.1,-000.3,0013.57,0008.54,0008.03
2022-10-08 21:04:00,,0833.5,5.00,0.00,30.1,28.7,00.0,38.9,32.0,15.2,-000.3,0013.31,0008.50,0007.96
2022-10-08 21:05:00,,0833.5,4.99,0.00,30.1,28.8,00.0,38.9,32.0,15.7,-000.2,0012.57,0008.45,0007.91
2022-10-08 21:06:00,,0833.5,5.01,0.00,30.2,28.9,00.0,38.9,32.0,15.8,-000.5,0011.68,0008.40,0007.90
2022-10-08 21:07:00,,0833.5,5.01,0.00,30.2,28.9,00.0,38.9,32.0,15.8,-000.4,0011.60,0008.36,0007.89
2022-10-08 21:08:00,,0833.5,4.99,0.00,30.2,29.0,00.0,38.9,32.0,15.8,-000.2,0011.71,0008.37,0007.91
2022-10-08 21:09:00,,0833.5,5.00,0.00,30.2,29.0,00.0,38.9,32.1,15.9,-000.2,0012.25,0008.44,0007.94
2022-10-08 21:10:00,,0833.5,5.01,0.00,30.2,29.1,00.0,38.9,32.1,16.0,0000.2,0012.27,0008.48,0007.97
2022-10-08 21:11:00,,0833.5,4.99,0.00,30.2,29.1,00.0,38.9,32.1,16.1,0000.6,0012.39,0008.52,0008.01
2022-10-08 21:12:00,,0833.4,4.99,0.00,30.3,29.2,00.0,39.0,32.1,16.2,0000.5,0012.42,0008.57,0008.06
2022-10-08 21:13:00,,0833.4,5.01,0.00,30.3,29.2,00.0,39.0,32.2,16.0,0000.6,0012.59,0008.61,0008.10
2022-10-08 21:14:00,,0833.4,4.99,0.00,30.3,29.2,00.0,39.0,32.2,15.8,0000.3,0012.70,0008.66,0008.14
2022-10-08 21:15:00,,0833.4,5.00,0.00,30.3,29.3,00.0,39.0,32.2,15.8,0000.1,0012.95,0008.65,0008.17
2022-10-08 21:16:00,,0833.4,5.01,0.00,30.3,29.3,00.0,39.0,32.2,15.8,0000.1,0013.11,0008.69,0008.20
2022-10-08 21:17:00,,0833.4,4.99,0.00,30.4,29.3,00.0,39.0,32.2,15.6,-000.0,0013.46,0008.72,0008.22
2022-10-08 21:18:00,,0833.4,5.00,0.00,30.4,29.3,00.0,39.1,32.2,15.5,-000.0,0013.94,0008.78,0008.25
2022-10-08 21:19:00,,0833.4,5.01,0.00,30.4,29.3,00.0,39.1,32.3,15.8,-000.1,0013.91,0008.78,0008.24
2022-10-08 21:20:00,,0833.5,5.01,0.00,30.4,28.1,00.0,39.1,32.1,15.9,-000.2,0013.46,0008.75,0008.22
2022-10-08 21:21:00,,0833.4,4.99,0.00,30.3,26.6,00.0,39.0,31.9,15.9,-000.3,0013.45,0008.74,0008.21
2022-10-08 21:22:00,,0833.4,5.01,0.00,30.2,26.3,00.0,38.9,31.8,15.9,-000.8,0013.55,0008.71,0008.18
2022-10-08 21:23:00,,0833.4,5.00,0.00,30.1,26.5,00.0,38.9,31.6,15.9,-000.7,0014.01,0008.71,0008.16
2022-10-08 21:24:00,,0833.4,5.00,0.00,30.0,26.9,00.0,38.8,31.6,16.1,-000.8,0014.02,0008.73,0008.17
2022-10-08 21:25:00,,0833.4,5.00,0.00,30.0,27.3,00.0,38.8,31.6,16.3,-000.7,0013.77,0008.72,0008.18
2022-10-08 21:26:00,,0833.5,5.00,0.00,30.0,27.7,00.0,38.8,31.7,16.1,-000.6,0013.25,0008.72,0008.20
2022-10-08 21:27:00,,0833.4,5.01,0.00,30.0,27.9,00.0,38.8,31.7,16.1,-000.2,0013.09,0008.73,0008.22
2022-10-08 21:28:00,,0833.5,5.00,0.00,29.9,28.1,00.0,38.7,31.7,16.0,0000.6,0012.91,0008.76,0008.25
2022-10-08 21:29:00,,0833.4,5.00,0.00,29.9,28.3,00.0,38.7,31.7,16.2,0001.0,0012.39,0008.77,0008.26
2022-10-08 21:30:00,,0833.4,5.01,0.00,29.9,28.5,00.0,38.7,31.7,16.2,0001.4,0012.39,0008.78,0008.28
2022-10-08 21:31:00,,0833.3,4.99,0.00,30.0,28.6,00.0,38.7,31.8,16.2,0001.8,0012.51,0008.82,0008.30
2022-10-08 21:32:00,,0833.3,5.00,0.00,30.0,28.7,00.0,38.7,31.8,16.2,0001.8,0012.62,0008.87,0008.35
2022-10-08 21:33:00,,0833.3,5.01,0.00,30.0,28.7,00.0,38.7,31.9,16.3,0001.8,0012.68,0008.94,0008.38
2022-10-08 21:34:00,,0833.3,4.99,0.00,30.0,28.8,00.0,38.7,31.9,16.3,0001.7,0012.91,0008.97,0008.41
2022-10-08 21:35:00,,0833.3,5.00,0.00,30.0,28.9,00.0,38.7,31.9,16.1,0001.6,0012.98,0009.01,0008.44
2022-10-08 21:36:00,,0833.3,5.00,0.00,30.0,28.9,00.0,38.7,31.9,16.4,0001.7,0013.07,0009.05,0008.48
2022-10-08 21:37:00,,0833.2,5.01,0.00,30.1,29.0,00.0,38.8,32.0,16.3,0001.8,0013.10,0009.08,0008.49
2022-10-08 21:38:00,,0833.3,4.99,0.00,30.1,29.0,00.0,38.8,32.0,15.8,0001.6,0013.14,0009.05,0008.47
2022-10-08 21:39:00,,0833.3,5.01,0.00,30.1,29.1,00.0,38.8,32.0,15.8,0000.9,0013.68,0009.02,0008.43
2022-10-08 21:40:00,,0833.3,5.01,0.00,30.1,29.1,00.0,38.8,32.0,15.9,0000.5,0013.62,0008.96,0008.40
2022-10-08 21:41:00,,0833.4,4.99,0.00,30.2,29.1,00.0,38.8,32.0,15.8,0000.0,0013.94,0008.96,0008.41
2022-10-08 21:42:00,,0833.3,5.01,0.00,30.2,29.2,00.0,38.8,32.1,15.9,-000.2,0014.12,0008.98,0008.41
2022-10-08 21:43:00,,0833.4,4.99,0.00,30.2,29.2,00.0,38.8,32.1,15.9,-000.2,0014.04,0008.95,0008.41
2022-10-08 21:44:00,,0833.3,5.00,0.00,30.2,29.2,00.0,38.9,32.1,16.2,0000.2,0014.02,0008.93,0008.42
2022-10-08 21:45:00,,0833.3,5.01,0.00,30.3,29.3,00.0,38.9,32.1,15.8,0000.4,0013.40,0008.95,0008.42
2022-10-08 21:46:00,,0833.3,4.98,0.00,30.3,29.3,00.0,38.9,32.2,15.9,0000.4,0013.27,0008.92,0008.40
2022-10-08 21:47:00,,0833.3,5.01,0.00,30.3,29.2,00.0,38.9,32.2,15.6,0000.3,0013.36,0008.90,0008.39
2022-10-08 21:48:00,,0833.3,4.99,0.00,30.3,29.3,00.0,39.0,32.2,15.6,0000.3,0013.47,0008.92,0008.38
2022-10-08 21:49:00,,0833.3,5.00,0.00,30.3,29.3,00.0,39.0,32.2,15.7,0000.2,0013.48,0008.95,0008.40
2022-10-08 21:50:00,,0833.3,5.01,0.00,30.4,29.3,00.0,39.0,32.2,15.8,0000.4,0013.24,0009.00,0008.45
2022-10-08 21:51:00,,0833.4,5.00,0.00,30.4,29.3,00.0,39.0,32.2,15.8,0000.5,0013.67,0009.12,0008.56
2022-10-08 21:52:00,,0833.4,5.00,0.00,30.4,28.7,00.0,39.0,32.2,15.8,0000.7,0013.52,0009.25,0008.68
2022-10-08 21:53:00,,0833.3,5.00,0.00,30.3,27.2,00.0,39.0,32.0,15.9,0000.7,0013.18,0009.28,0008.75
2022-10-08 21:54:00,,0833.4,5.00,0.00,30.3,26.9,00.0,38.9,31.9,15.8,0000.6,0013.16,0009.31,0008.78
2022-10-08 21:55:00,,0833.4,5.01,0.00,30.2,27.1,00.0,38.9,31.8,15.9,0000.2,0013.17,0009.33,0008.80
2022-10-08 21:56:00,,0833.4,4.99,0.00,30.1,27.4,00.0,38.9,31.8,15.9,0000.1,0013.01,0009.28,0008.78
2022-10-08 21:57:00,,0833.5,4.99,0.00,30.1,27.7,00.0,38.8,31.7,16.0,-000.2,0012.96,0009.29,0008.77
2022-10-08 21:58:00,,0833.4,4.99,0.00,30.0,28.0,00.0,38.8,31.8,15.9,-000.0,0012.82,0009.25,0008.74
2022-10-08 21:59:00,,0833.4,4.99,0.00,30.0,28.3,00.0,38.8,31.8,15.9,-000.0,0012.83,0009.22,0008.73
